Location: La Brionne
(46.1728°N, 1.7849°E)
Time: 20:04:20
(UTC+00:00)

USA 267 - Pass Details

Date: 23 October 2021
Orbit: 1101 x 1107 km, 123.0° (Epoch: 27 November)

Event Time Altitude Azimuth Distance (km) Brightness Sun altitude
Rises 18:38:02 0° 155° (SSE) 3,904 5.9 -18.9°
Reaches altitude 10° 18:40:42 10° 163° (SSE) 2,949 5.3 -19.4°
Maximum altitude 18:46:41 38° 230° (SW) 1,607 4.5 -20.4°
Drops below altitude 10° 18:52:43 10° 297° (WNW) 2,962 6.5 -21.4°
Sets 18:55:25 0° 305° (NW) 3,923 7.2 -21.9°
